Temperature
12 12 12 12 13 13 13 13 13 13 14 14 14 14 14 14 14 14 14 14 14 14 14 14 14 14 14 14 14 14 14 14 14 14 14 14 14 14 14 14 14 15 15
12 12 12 12 12 13 13 13 13 13 13 13 13 13 14 14 14 14 14 14 14 14 14 14 14 14 14 14 14 14 13 13 13 13 13 13 13 14 14 14 14 14 14
11 12 12 12 12 12 12 12 12 13 13 13 13 13 13 13 13 13 13 13 13 14 14 14 14 14 14 14 14 14 14 14 14 13 13 13 13 14 14 14 14 14 14
11 11 11 11 12 12 12 12 12 12 12 13 13 13 13 13 13 13 13 13 13 13 13 13 14 13 13 13 13 13 13 14 14 13 13 13 13 13 13 13 13 13 13
11 11 11 11 11 11 12 12 12 12 12 12 12 12 12 12 13 13 13 13 13 13 13 13 13 13 14 13 13 13 13 13 13 13 13 13 13 13 13 13 13 13 13
11 11 11 11 11 11 11 11 11 12 12 12 12 12 12 12 12 13 13 13 13 13 13 13 13 13 13 13 13 13 13 13 13 13 13 13 13 13 13 13 13 13 12
11 11 11 11 11 11 11 11 11 11 11 12 12 12 12 12 12 12 13 13 13 13 13 13 13 13 13 13 13 13 13 13 13 13 13 13 12 13 13 12 12 12 12
11 10 10 11 11 11 11 11 11 11 11 11 11 11 11 12 12 12 12 12 12 13 13 13 13 13 13 13 13 13 13 13 13 13 13 12 12 12 12 12 12 12 12
11 10 10 10 11 11 11 11 11 11 11 11 11 11 11 11 11 12 12 12 12 12 13 13 13 13 13 13 13 13 13 13 13 13 13 13 13 13 12 12 12 12 11
11 11 10 11 11 11 11 10 10 10 10 10 10 11 11 11 11 11 12 12 12 12 12 12 13 13 13 13 12 12 12 12 12 12 12 12 12 12 12 12 12 12 11
11 11 11 11 10 10 10 10 10 10 10 10 10 10 10 11 11 11 11 11 11 11 12 12 12 12 13 13 12 12 12 12 12 12 11 11 11 11 11 11 11 11 11
11 11 11 11 11 10 10 10 10 10 10 10 10 10 10 10 10 11 11 11 11 11 12 12 12 12 12 12 12 12 12 12 11 11 11 11 11 11 11 11 11 11 11
11 11 11 11 11 10 10 10 10 10 10 10 10 10 10 10 10 10 10 11 11 11 11 11 12 12 12 12 12 12 11 11 11 11 11 11 11 10 10 10 10 10 10
11 11 11 11 10 10 10 10 10 10 9 9 9 9 9 9 10 10 10 10 10 10 11 11 11 11 11 11 11 11 11 11 11 11 10 10 10 10 10 9 9 9 9
11 11 11 11 10 10 10 10 10 10 10 10 9 9 9 9 10 10 10 10 10 10 10 10 10 10 10 10 11 11 10 10 10 10 10 10 9 9 9 9 9 9 9
12 11 11 11 10 10 10 10 10 10 10 10 10 10 10 10 10 10 10 10 10 10 10 10 10 10 10 10 10 10 10 10 10 9 9 9 9 9 9 9 9 8 8
12 11 11 11 10 10 10 10 10 10 10 10 10 10 10 10 10 10 10 10 10 10 10 10 10 10 10 10 9 9 9 9 9 9 9 9 9 8 8 8 8 8 8
12 12 11 11 11 11 10 10 10 10 10 9 10 10 10 10 10 10 10 10 10 10 10 9 9 9 9 9 9 9 9 9 9 9 8 8 8 8 8 8 8 8 7
12 12 12 11 11 11 11 11 10 10 10 10 10 10 10 10 10 10 10 10 9 9 9 9 9 9 9 9 9 9 9 9 8 8 8 8 8 8 8 8 8 7 7
12 12 12 12 11 11 11 11 11 10 10 10 10 10 10 10 10 10 10 10 10 10 10 9 10 9 9 9 9 9 8 8 8 8 8 8 7 7 7 7 7 7 7
13 12 12 12 12 11 11 11 11 11 11 10 10 10 11 10 10 10 10 10 10 10 10 10 10 10 10 9 9 9 8 8 8 8 7 7 7 7 7 7 7 7 7
13 12 12 12 12 12 12 11 11 11 11 11 10 11 11 11 10 10 10 10 10 10 10 10 10 10 10 10 9 9 8 8 8 7 7 7 7 7 7 7 7 6 6
13 13 13 12 12 12 12 12 12 11 11 11 11 11 11 10 10 10 10 10 11 11 11 11 10 10 10 10 10 10 9 8 8 8 7 7 7 6 6 6 6 6 6
13 13 13 12 12 12 12 12 12 12 12 11 11 11 11 11 11 11 11 11 11 11 11 11 11 11 11 11 10 10 10 10 9 9 8 7 7 6 6 6 6 6 6
13 13 13 12 12 12 12 12 12 12 12 12 12 11 11 11 11 11 11 11 11 11 11 11 11 11 11 11 11 11 11 10 10 9 9 8 7 7 6 6 6 6 6
13 13 13 12 12 12 12 12 12 12 12 12 12 12 12 11 11 11 11 11 12 11 11 11 11 11 11 11 11 11 11 10 10 10 9 8 8 7 7 6 6 6 6
Wind_Speed
12 11 11 11 11 10 9 9 8 7 6 4 4 3 3 3 2 2 2 3 4 4 4 5 5 4 4 4 4 4 4 4 3 1 1 1 2 2 2 3 4 5 6
12 11 11 11 11 11 11 11 10 9 8 7 5 5 5 4 3 2 2 3 3 4 4 4 4 4 4 4 4 5 4 4 4 3 2 2 2 1 2 2 2 3 3
12 12 12 12 12 12 11 11 11 10 9 8 7 6 6 5 4 3 3 3 3 3 3 4 4 4 4 4 4 4 4 4 3 3 2 2 1 1 2 2 2 2 2
11 11 12 11 11 11 11 11 11 10 10 9 9 8 7 6 5 4 3 3 3 2 2 2 2 3 3 3 3 4 4 4 3 3 3 2 2 1 1 2 3 3 3
11 11 11 11 11 11 11 11 11 10 11 10 9 9 8 7 7 6 3 3 3 3 3 3 3 4 6 3 2 3 4 4 4 3 3 3 2 2 1 1 3 3 4
11 11 11 11 11 11 11 11 11 11 11 11 10 9 9 8 9 9 5 4 3 4 4 4 5 5 7 7 6 5 3 3 4 3 3 3 3 3 2 2 3 3 3
10 10 10 10 11 11 10 10 10 10 10 10 10 10 10 11 11 10 8 5 5 4 4 5 4 5 5 7 8 8 8 7 3 2 4 4 3 3 2 3 3 3 3
9 10 10 10 10 10 10 10 10 9 9 9 10 10 10 11 12 11 8 6 6 6 5 5 5 5 5 5 7 7 8 8 6 5 6 6 5 4 3 3 5 5 5
8 9 9 9 10 10 10 10 9 8 9 9 9 10 10 11 13 10 7 6 6 7 7 7 5 6 6 3 6 8 9 9 13 15 14 12 11 10 5 3 3 4 4
7 7 8 8 9 9 9 8 8 7 8 8 9 10 10 10 13 12 8 5 6 6 6 7 10 8 6 5 5 7 8 8 7 8 8 8 8 8 6 4 2 2 3
5 5 6 7 8 8 8 7 7 7 8 8 9 9 10 11 12 13 11 6 5 6 6 6 7 8 8 8 5 6 7 6 7 7 6 6 6 6 7 8 7 5 4
4 5 5 6 6 6 7 8 8 8 8 8 8 9 8 9 10 11 12 10 7 7 6 6 7 10 10 9 7 8 5 3 6 5 6 6 6 6 6 7 9 10 9
4 4 5 5 6 6 7 7 7 7 7 7 7 7 7 7 7 9 10 11 10 8 8 10 9 8 8 10 10 6 3 4 5 6 6 6 5 5 5 6 7 9 10
3 4 4 4 5 6 5 6 7 7 7 7 7 6 6 6 7 6 5 5 6 7 7 9 9 10 8 8 6 6 6 6 5 6 5 5 5 4 4 4 4 4 6
2 3 3 3 3 4 5 5 6 7 6 6 6 6 6 6 7 9 6 5 5 5 4 4 5 5 6 6 6 6 5 5 6 5 5 5 4 4 4 4 3 4 5
1 2 1 1 1 1 2 3 4 4 5 6 7 7 5 6 6 7 8 8 7 3 2 5 5 6 6 5 5 5 6 5 5 4 4 4 4 4 4 4 4 4 5
1 2 2 1 1 0 1 1 2 3 4 4 5 6 6 5 5 5 6 6 5 2 4 5 5 5 5 5 5 5 5 5 4 4 4 4 4 4 4 4 4 4 4
2 2 3 2 2 1 0 1 1 2 1 2 4 4 4 4 4 4 3 2 3 4 4 4 4 4 4 4 4 4 4 4 3 4 3 3 3 3 3 3 3 3 3
4 3 3 3 3 3 2 2 1 1 1 1 1 3 3 2 3 2 3 1 3 3 3 3 3 3 3 3 3 3 3 3 3 3 3 3 3 3 3 3 4 3 2
4 3 4 4 4 4 4 3 2 2 1 1 0 0 2 2 1 1 1 1 2 2 2 2 2 2 2 2 2 2 2 2 2 2 3 2 2 2 3 3 3 3 2
5 5 7 6 5 5 4 4 4 3 3 2 1 1 0 1 1 1 1 1 1 2 2 2 2 2 2 2 2 2 2 2 2 2 2 2 2 2 2 2 2 2 3
5 6 6 6 5 5 5 5 5 4 4 4 3 4 6 4 3 2 2 3 2 2 2 3 3 3 2 3 3 3 3 3 3 3 3 3 3 2 3 3 2 2 3
6 6 6 6 6 6 6 6 6 6 5 5 4 4 5 5 4 4 4 4 4 4 4 4 4 4 4 4 3 3 4 4 3 3 3 3 3 3 3 3 3 3 3
7 7 7 7 6 6 7 7 7 6 6 6 6 6 6 6 6 6 5 5 5 6 6 6 6 6 6 5 5 5 5 3 4 4 4 3 4 3 3 3 4 3 3
7 7 7 7 7 7 7 7 7 7 7 7 7 7 6 6 7 7 7 7 7 7 8 8 7 8 8 9 7 6 5 5 4 4 5 5 4 4 4 4 4 4 4
7 7 7 7 7 7 7 7 7 8 7 7 7 7 7 7 7 7 7 8 8 8 9 9 10 10 10 10 9 8 8 8 8 7 6 6 5 5 5 5 5 5 5
Wind_Direction
15 18 24 26 26 29 30 29 31 35 38 55 69 81 88 101 125 148 169 186 193 190 192 195 199 193 195 199 202 209 214 217 228 218 212 202 217 221 190 215 207 213 194
17 24 28 29 30 33 32 30 34 41 43 50 61 72 76 74 81 98 124 152 162 176 177 180 184 175 187 188 190 197 201 202 214 211 190 198 211 203 215 195 198 208 187
20 25 28 28 30 33 33 32 34 37 40 47 54 60 64 65 65 74 95 116 134 153 165 170 177 176 181 181 184 182 186 187 196 195 179 160 162 166 174 152 159 148 135
22 26 28 27 29 32 33 33 35 36 38 42 47 51 55 57 54 56 67 82 97 110 124 133 147 162 164 172 177 175 174 169 176 176 162 149 129 144 169 150 133 114 108
25 28 27 28 32 33 33 33 36 37 38 40 42 44 46 49 43 39 55 81 92 102 105 104 93 81 68 82 132 158 165 163 159 157 149 140 136 142 136 136 122 117 93
29 29 28 29 31 32 33 34 36 37 37 37 38 39 43 44 41 39 34 74 88 95 100 98 107 109 104 96 80 70 64 139 149 148 142 136 123 117 106 121 134 141 105
32 32 30 30 31 32 34 35 35 37 39 38 37 38 43 42 39 43 36 58 74 78 88 97 96 100 123 117 113 115 86 63 43 111 118 107 106 107 118 115 103 89 88
31 31 29 29 32 33 34 34 34 36 39 38 37 38 43 42 40 39 31 62 68 68 68 79 96 101 89 105 113 103 90 74 60 80 87 78 71 77 88 96 103 106 104
29 26 26 28 31 33 34 32 32 36 40 41 41 40 42 42 39 34 27 68 72 68 62 59 67 90 60 36 114 110 102 88 71 71 73 80 67 45 24 111 129 134 113
28 27 28 30 32 34 34 32 34 39 42 46 45 41 41 41 38 33 24 63 71 74 73 70 56 66 65 11 114 116 111 108 110 107 102 110 91 72 30 58 60 99 117
34 36 34 34 37 35 34 36 40 44 46 48 50 48 46 41 41 38 28 48 66 74 74 71 66 66 65 40 45 90 95 106 107 102 94 85 76 68 60 55 48 42 70
51 50 44 39 36 37 38 37 39 41 45 47 48 49 46 47 44 43 44 43 42 75 71 72 74 72 71 59 68 79 78 93 107 104 95 84 78 73 69 68 67 65 63
68 63 56 53 48 41 39 39 39 40 40 40 42 43 43 43 55 64 61 56 47 68 74 71 73 79 95 84 77 74 97 98 99 97 91 83 79 80 84 82 81 78 72
79 73 68 62 57 51 40 36 38 32 34 37 36 36 39 41 33 30 57 83 94 90 93 96 92 76 82 88 92 77 73 73 85 93 95 96 96 91 84 87 94 98 87
105 98 85 74 61 53 54 39 34 44 30 19 25 26 28 36 25 13 20 46 54 64 86 96 90 90 84 81 79 76 80 88 86 90 96 101 101 94 84 77 79 94 97
135 118 107 102 89 60 60 86 79 54 60 45 28 16 54 48 34 40 48 51 47 12 83 93 89 86 85 87 88 87 82 78 80 85 89 93 95 95 92 86 89 95 99
192 170 169 178 163 154 33 25 72 134 143 93 58 40 41 44 46 51 57 61 42 350 95 93 91 88 87 87 87 87 84 81 81 87 90 94 99 99 97 96 96 97 97
208 188 201 203 220 228 270 343 4 7 42 93 109 85 64 59 52 34 321 249 90 81 84 90 91 90 89 91 92 95 97 96 93 94 95 95 98 103 102 101 96 97 105
210 207 208 213 219 228 234 250 272 302 345 21 81 128 135 157 142 35 315 57 81 91 95 95 95 99 99 97 96 100 104 105 104 106 100 101 104 108 109 110 104 99 109
214 204 226 225 223 224 228 238 250 262 281 295 312 53 156 202 187 121 97 78 99 110 118 124 121 120 120 116 120 132 136 131 136 134 122 122 118 120 124 122 122 136 127
225 206 205 231 233 234 237 241 246 251 260 263 244 136 256 231 223 179 174 168 166 162 163 161 164 173 173 175 179 176 177 162 160 160 152 150 148 144 139 136 137 139 135
229 226 221 227 230 232 238 240 242 243 245 245 231 182 188 228 226 216 207 201 197 198 193 195 195 189 197 206 214 212 202 192 184 184 176 167 168 170 166 161 159 160 160
233 231 228 228 230 224 233 239 237 239 240 238 233 222 207 220 224 222 216 206 198 198 198 205 208 202 203 209 218 226 218 199 193 195 193 188 192 188 185 178 179 187 180
232 233 234 234 232 235 236 239 237 237 239 239 233 229 227 225 225 221 216 208 203 203 203 208 215 213 209 211 214 216 216 200 196 202 213 214 210 208 203 200 204 203 198
231 234 235 237 236 236 240 241 241 238 235 236 236 233 229 226 224 219 213 208 208 209 208 210 211 214 215 214 215 214 189 196 223 235 214 221 220 218 218 214 213 213 215
229 234 237 239 240 242 243 245 244 243 240 238 237 235 231 227 225 219 212 208 208 209 210 212 215 214 214 216 215 203 191 202 212 228 237 231 223 221 220 221 220 222 221
Height
1519 1516 1513 1510 1508 1507 1505 1504 1504 1503 1503 1503 1504 1504 1505 1506 1507 1508 1510 1511 1513 1515 1516 1518 1520 1521 1522 1524 1526 1527 1529 1530 1532 1533 1534 1535 1536 1537 1538 1539 1540 1541 1542
1523 1519 1516 1514 1512 1510 1508 1507 1506 1505 1505 1505 1505 1506 1506 1507 1507 1508 1509 1510 1512 1513 1515 1517 1518 1519 1521 1522 1524 1525 1526 1527 1529 1530 1531 1532 1533 1534 1535 1536 1537 1539 1540
1526 1523 1520 1518 1515 1513 1512 1510 1509 1508 1507 1507 1507 1507 1507 1507 1508 1508 1510 1511 1512 1513 1515 1516 1517 1519 1520 1521 1522 1524 1525 1526 1527 1529 1530 1530 1531 1532 1533 1534 1535 1536 1537
1530 1527 1524 1521 1519 1517 1515 1513 1512 1511 1510 1509 1508 1508 1508 1509 1509 1509 1510 1511 1513 1514 1515 1516 1517 1519 1520 1521 1522 1523 1524 1525 1526 1528 1529 1530 1530 1531 1532 1533 1534 1535 1536
1534 1530 1527 1525 1523 1520 1518 1517 1515 1513 1512 1511 1510 1510 1510 1510 1509 1510 1511 1512 1513 1514 1515 1516 1517 1518 1519 1520 1522 1523 1524 1524 1526 1527 1528 1529 1530 1530 1531 1532 1532 1533 1534
1537 1534 1531 1528 1526 1523 1521 1520 1518 1517 1515 1514 1513 1512 1511 1511 1511 1511 1511 1512 1513 1515 1516 1517 1518 1519 1520 1521 1522 1522 1524 1525 1526 1527 1528 1529 1530 1530 1530 1531 1532 1533 1534
1540 1537 1534 1532 1529 1527 1525 1523 1521 1520 1518 1517 1515 1514 1513 1512 1512 1512 1512 1513 1514 1515 1516 1518 1519 1519 1521 1522 1522 1523 1524 1525 1526 1528 1528 1529 1529 1529 1530 1531 1531 1532 1532
1543 1540 1537 1535 1533 1530 1528 1526 1524 1523 1521 1519 1518 1517 1516 1515 1514 1514 1514 1514 1514 1515 1517 1519 1520 1521 1522 1523 1524 1525 1525 1526 1527 1528 1529 1529 1529 1530 1530 1531 1531 1531 1532
1545 1543 1540 1538 1536 1533 1531 1529 1527 1525 1523 1522 1520 1519 1518 1517 1516 1516 1516 1516 1516 1517 1518 1519 1521 1522 1523 1524 1525 1526 1526 1527 1528 1528 1529 1529 1529 1530 1530 1531 1532 1533 1533
1547 1545 1543 1541 1539 1536 1534 1532 1530 1528 1526 1525 1523 1521 1520 1519 1518 1518 1517 1518 1518 1518 1519 1521 1522 1523 1524 1525 1527 1527 1528 1529 1529 1530 1530 1531 1531 1531 1531 1532 1533 1533 1534
1549 1547 1545 1543 1541 1539 1537 1534 1533 1531 1529 1527 1526 1524 1523 1522 1521 1520 1520 1520 1520 1521 1521 1522 1523 1524 1525 1526 1527 1528 1529 1530 1531 1531 1532 1532 1532 1532 1532 1532 1532 1533 1533
1550 1549 1547 1545 1543 1541 1539 1537 1536 1534 1532 1531 1529 1528 1527 1525 1524 1523 1522 1522 1522 1523 1523 1524 1525 1526 1527 1528 1528 1529 1530 1531 1532 1533 1533 1533 1533 1533 1533 1533 1533 1533 1533
1552 1550 1549 1547 1546 1544 1542 1540 1539 1537 1535 1534 1532 1531 1530 1529 1527 1526 1525 1525 1525 1525 1525 1526 1526 1527 1528 1529 1530 1530 1531 1532 1533 1533 1534 1534 1534 1534 1534 1534 1534 1534 1534
1554 1552 1551 1550 1548 1547 1545 1543 1541 1540 1538 1537 1535 1534 1532 1531 1530 1529 1529 1528 1527 1527 1528 1528 1529 1529 1530 1530 1531 1532 1533 1533 1534 1534 1534 1534 1535 1535 1535 1536 1536 1536 1536
1555 1554 1553 1551 1550 1549 1547 1545 1544 1542 1540 1539 1537 1536 1535 1533 1532 1531 1530 1530 1530 1530 1530 1531 1531 1532 1532 1532 1533 1533 1534 1534 1535 1535 1535 1536 1536 1536 1536 1536 1537 1537 1537
1556 1555 1554 1553 1552 1551 1549 1548 1546 1544 1543 1541 1539 1538 1537 1535 1534 1533 1532 1532 1532 1531 1532 1532 1533 1533 1533 1534 1534 1534 1535 1535 1535 1536 1536 1536 1537 1537 1537 1537 1537 1538 1538
1556 1555 1554 1553 1553 1552 1551 1550 1549 1547 1545 1543 1541 1540 1538 1537 1536 1535 1535 1534 1533 1533 1534 1534 1534 1534 1534 1535 1535 1535 1535 1536 1536 1536 1537 1537 1537 1538 1538 1538 1538 1538 1538
1555 1554 1554 1553 1553 1552 1551 1550 1549 1548 1547 1545 1543 1541 1540 1539 1538 1537 1536 1536 1536 1535 1535 1535 1535 1535 1535 1535 1536 1536 1536 1536 1536 1537 1537 1537 1538 1538 1538 1538 1539 1539 1539
1554 1553 1553 1553 1552 1552 1551 1550 1549 1548 1547 1546 1544 1542 1541 1540 1539 1538 1537 1537 1537 1536 1536 1535 1535 1535 1535 1535 1536 1536 1536 1536 1536 1537 1537 1537 1538 1538 1538 1539 1538 1538 1539
1552 1551 1551 1551 1551 1551 1550 1550 1549 1548 1547 1546 1545 1543 1541 1540 1540 1539 1538 1537 1537 1536 1536 1536 1535 1535 1535 1535 1535 1536 1536 1536 1536 1537 1537 1537 1537 1538 1538 1538 1539 1539 1539
1549 1549 1549 1549 1549 1549 1549 1548 1548 1547 1546 1546 1544 1542 1541 1540 1539 1538 1538 1537 1536 1536 1535 1535 1535 1535 1535 1535 1535 1535 1535 1536 1536 1536 1536 1536 1537 1537 1538 1538 1538 1539 1539
1546 1546 1546 1547 1547 1546 1546 1546 1546 1545 1545 1544 1543 1541 1540 1539 1538 1538 1537 1536 1535 1535 1535 1534 1534 1534 1534 1534 1534 1534 1534 1535 1535 1535 1536 1536 1536 1537 1537 1538 1538 1538 1538
1543 1543 1543 1543 1543 1543 1543 1543 1543 1543 1542 1542 1541 1540 1539 1538 1537 1536 1535 1535 1534 1533 1533 1533 1533 1533 1532 1532 1532 1532 1533 1533 1533 1534 1534 1535 1535 1536 1537 1537 1537 1537 1538
1538 1539 1539 1540 1540 1540 1540 1540 1540 1540 1539 1539 1539 1538 1537 1536 1535 1535 1534 1533 1532 1532 1531 1531 1531 1531 1531 1531 1531 1531 1531 1531 1531 1532 1532 1533 1534 1535 1535 1536 1536 1536 1537
1534 1534 1534 1535 1535 1536 1536 1536 1536 1536 1536 1536 1535 1535 1535 1534 1533 1532 1532 1531 1530 1530 1530 1529 1529 1529 1529 1529 1529 1529 1529 1529 1530 1530 1530 1531 1532 1533 1533 1534 1535 1535 1535
1529 1529 1529 1530 1530 1531 1531 1531 1532 1532 1532 1532 1531 1531 1531 1531 1530 1530 1529 1528 1528 1528 1527 1527 1527 1526 1526 1527 1527 1527 1527 1527 1528 1528 1528 1529 1530 1531 1531 1532 1532 1533 1533